Regional Weather Roundup
Issued by NWS

Home | Current Version | Previous Version | Text Only | Print | Product List | Glossary Off
Versions: 1 2 3 4 5 6 7 8 9 10 11 12 13 14 15 16 17 18 19 20 21 22 23 24 25 26 27 28 29 30 31 32 33 34 35 36 37 38 39

000
ASUS45 KCYS 210910
RWRWY

WYOMING REGIONAL WEATHER ROUNDUP
NATIONAL WEATHER SERVICE CHEYENNE WY
300 AM MDT TUE OCT 21 2014

NOTE:  "FAIR" INDICATES FEW OR NO CLOUDS BELOW 12,000 FEET
WITH NO SIGNIFICANT WEATHER AND/OR OBSTRUCTIONS TO VISIBILITY.

WYZ001-211000-
YELLOWSTONE NATIONAL PARK

CITY           SKY/WX    TMP DP  RH WIND       PRES   REMARKS
LK YELLOWSTONE   N/A     29  27  92 CALM      30.05F
W YELLOWSTONE  NOT AVBL

$$
WYZ002>013-054>058-071-098>099-211000-
NORTHERN WYOMING

CITY           SKY/WX    TMP DP  RH WIND       PRES   REMARKS
JACKSON        MOCLDY    34  30  86 N7        29.99F WCI  28
CODY           CLEAR    N/A N/A N/A S10       29.87F
GREYBULL       CLEAR     42  27  55 CALM      29.85S
WORLAND        CLEAR     40  29  64 S3        29.85F
SHERIDAN       CLEAR     42  30  62 CALM      29.81F
BUFFALO        CLEAR     49  26  41 W6        29.87F
GILLETTE       CLEAR     58  34  40 S18G25    29.85
HULETT         FAIR      64  34  32 S14G22    29.87
NEWCASTLE      FAIR      55  34  44 E9        29.93

$$
WYZ014>020-022>026-101>103-211000-
CENTRAL WYOMING

CITY           SKY/WX    TMP DP  RH WIND       PRES   REMARKS
BIG PINEY      CLEAR     32  26  78 NW6       30.06F WCI  26
PINEDALE       MOSUNNY   34  30  86 CALM      30.06F
DUBOIS         FAIR      37  28  70 NW9       30.02F WCI  31
LANDER         CLEAR     54  32  43 VRB3      29.93F
RIVERTON       CLEAR     49  29  46 SE5       29.95F
CASPER         CLEAR     53  35  50 SW10      29.96F
DOUGLAS        CLEAR     44  34  67 SE5       29.98S

$$
WYZ021-027>030-104>119-211000-
SOUTHERN WYOMING

CITY           SKY/WX    TMP DP  RH WIND       PRES   REMARKS
EVANSTON       PTCLDY    48  34  58 SW7       30.05S
KEMMERER       MOSUNNY   37  32  81 N3        30.06F
FORT BRIDGER   FAIR      51  35  52 S12       30.06F
ROCK SPRINGS   CLEAR     48  34  58 SW9       30.05F
DIXON          FAIR      38  33  82 CALM      30.13S
RAWLINS        CLEAR     48  34  58 W6        30.09S
SARATOGA       FAIR      46  34  61 S13       30.12S
LARAMIE        CLEAR     37  31  78 S9        30.13S WCI  30
CHEYENNE       CLEAR     44  34  67 W10       30.06F
TORRINGTON     CLEAR     52  38  58 SE9       29.96S
PINE BLUFFS    FAIR      41  36  81 W7        30.03F

$$



USA.gov is the U.S. government's official web portal to all federal, state and local government web resources and services.